Wind from 271 at 1 knots gusting 3

Air temperature 13.3° C
Dewpoint 3.4° C

Last reported at 2014-Apr-18 08:45 UTC.
Time now 2014-Apr-18 20:56 UTC

Location: N 43°19' E 012°34'.
View on Google Maps.

See reports from other nearby stations

Tides Stations Pressure Air Temp Water Temp Dewpoint Dewpoint depression Visibility Wind Speed Wind Dir Waves Ship positions

  
sailing weather and tide predictions

DW8209 Gubbio IT weather

date/time (UTC)wind fromknots sea level pressurealtimeterstation pressurevisibilityair tempwater tempwave heightnotes
2014-Apr-18 08:45 271 1 gusting 3 13.3
2014-Apr-18 08:30 075 12.8
2014-Apr-18 08:15 062 2 gusting 5 12.2
2014-Apr-18 08:00 120 3 gusting 4 11.7
2014-Apr-18 07:45 124 1 gusting 3 11.7
2014-Apr-18 07:30 132 1 gusting 4 11.1
2014-Apr-18 07:15 269 0 gusting 6 10.0
2014-Apr-18 07:00 269 3 gusting 6 8.9
2014-Apr-18 06:45 290 2 gusting 5 8.3
2014-Apr-18 06:30 314 1 gusting 6 7.2
2014-Apr-18 06:15 250 6.7
2014-Apr-18 05:59 155 7.2
2014-Apr-18 05:44 162 5.6
2014-Apr-18 05:29 248 4.4
2014-Apr-18 05:14 143 3.9
2014-Apr-18 04:59 283 2.8
2014-Apr-18 04:44 307 1 gusting 3 2.2
2014-Apr-18 04:29 274 0 gusting 4 2.2
2014-Apr-18 04:14 054 2.8
2014-Apr-18 03:59 117 0 gusting 1 2.2
2014-Apr-18 03:44 115 2.8
2014-Apr-18 03:29 273 0 gusting 1 3.3
2014-Apr-18 03:14 298 3.9
2014-Apr-18 02:59 353 0 gusting 2 4.4
2014-Apr-18 02:44 279 1 gusting 3 4.4
2014-Apr-18 02:29 281 1 gusting 3 4.4
2014-Apr-18 02:14 311 1 gusting 5 4.4
2014-Apr-18 01:59 296 2 gusting 7 5.6
2014-Apr-18 01:44 231 6.1
2014-Apr-18 01:29 014 2 gusting 7 6.7
2014-Apr-18 01:14 300 5 gusting 8 6.7
2014-Apr-18 00:59 349 2 gusting 8 6.1
2014-Apr-18 00:44 082 1 gusting 5 5.6
2014-Apr-18 00:29 041 1 gusting 5 6.1
2014-Apr-18 00:14 301 1 gusting 5 6.1
2014-Apr-17 23:59 347 5 gusting 9 6.7
2014-Apr-17 23:43 322 2 gusting 9 7.2
2014-Apr-17 23:28 284 4 gusting 6 6.7
2014-Apr-17 23:13 302 3 gusting 6 6.1
2014-Apr-17 22:58 287 3 gusting 7 6.1
2014-Apr-17 22:43 249 0 gusting 2 4.4
2014-Apr-17 22:28 110 5.6
2014-Apr-17 22:13 273 6.1
2014-Apr-17 21:59 302 1 gusting 4 5.6
2014-Apr-17 21:43 266 3 gusting 4 5.6
2014-Apr-17 21:28 262 2 gusting 3 4.4
2014-Apr-17 21:13 280 1 gusting 2 4.4
2014-Apr-17 20:58 257 1 gusting 2 4.4
2014-Apr-17 20:43 070 0 gusting 2 5.0
2014-Apr-17 20:28 327 1 gusting 4 5.6
2014-Apr-17 20:13 315 0 gusting 5 5.6
2014-Apr-17 19:58 283 1 gusting 5 6.7
2014-Apr-17 19:43 266 7.2
2014-Apr-17 19:28 101 0 gusting 4 7.8
2014-Apr-17 19:13 113 0 gusting 2 7.2
2014-Apr-17 18:58 160 8.3
2014-Apr-17 18:43 067 1 gusting 5 8.3
2014-Apr-17 18:28 071 5 gusting 6 8.3
2014-Apr-17 18:13 186 1 gusting 3 8.9
2014-Apr-17 17:58 036 0 gusting 4 8.9
2014-Apr-17 17:43 333 1 gusting 3 9.4
2014-Apr-17 17:28 262 3 gusting 6 10.0
2014-Apr-17 17:13 311 5 gusting 9 10.6
2014-Apr-17 16:58 305 1 gusting 7 10.0
2014-Apr-17 16:43 312 5 gusting 9 10.0
2014-Apr-17 16:28 298 6 gusting 10 10.0
2014-Apr-17 16:13 011 5 gusting 11 10.0
2014-Apr-17 15:58 015 7 gusting 13 10.6
2014-Apr-17 15:43 329 8 gusting 15 10.0
2014-Apr-17 15:28 007 5 gusting 9 10.6
2014-Apr-17 15:13 309 3 gusting 12 10.0
2014-Apr-17 14:58 345 7 gusting 15 10.0
2014-Apr-17 14:43 011 9 gusting 17 10.0
2014-Apr-17 14:28 004 8 gusting 18 10.6
2014-Apr-17 14:13 037 6 gusting 16 10.6
2014-Apr-17 13:58 032 8 gusting 15 9.4
2014-Apr-17 13:43 003 11 gusting 21 9.4
2014-Apr-17 13:28 067 6 gusting 25 9.4
2014-Apr-17 13:13 051 13 gusting 19 10.0
2014-Apr-17 12:58 023 15 gusting 21 10.6
2014-Apr-17 12:43 316 8 gusting 19 10.6
2014-Apr-17 12:28 332 8 gusting 20 11.1
2014-Apr-17 12:13 328 11 gusting 20 11.1
2014-Apr-17 11:58 285 6 gusting 18 10.6
2014-Apr-17 11:43 322 5 gusting 16 10.6
2014-Apr-17 11:28 330 7 gusting 14 10.6
2014-Apr-17 11:13 018 8 gusting 16 10.0
2014-Apr-17 10:58 036 13 gusting 20 10.0
2014-Apr-17 10:42 306 11 gusting 17 10.0
2014-Apr-17 10:27 358 8 gusting 19 10.0
2014-Apr-17 10:12 008 8 gusting 15 10.0
2014-Apr-17 09:57 333 7 gusting 19 10.0
2014-Apr-17 09:42 331 6 gusting 14 10.0
2014-Apr-17 09:27 021 11 gusting 18 10.0
2014-Apr-17 09:12 324 9 gusting 13 9.4
2014-Apr-17 08:57 044 6 gusting 13 10.0
2014-Apr-17 08:42 358 10 gusting 18 10.0
2014-Apr-17 08:27 305 4 gusting 12 9.4
2014-Apr-17 08:12 028 6 gusting 15 8.9
2014-Apr-17 07:57 329 6 gusting 13 8.3
2014-Apr-17 07:42 322 8 gusting 14 8.3
2014-Apr-17 07:27 008 8 gusting 16 8.3
2014-Apr-17 07:12 302 6 gusting 15 8.3
2014-Apr-17 06:57 308 6 gusting 10 7.8
2014-Apr-17 06:42 311 7 gusting 12 7.8
2014-Apr-17 06:27 304 1 gusting 9 7.8
2014-Apr-17 06:12 322 3 gusting 6 6.7
2014-Apr-17 05:57 016 4 gusting 7 6.7
2014-Apr-17 05:42 338 4 gusting 8 6.7
2014-Apr-17 05:27 315 2 gusting 6 6.7
2014-Apr-17 05:12 322 4 gusting 7 6.7
2014-Apr-17 04:56 322 3 gusting 6 5.6
2014-Apr-17 04:41 356 2 gusting 7 5.6
2014-Apr-17 04:26 342 2 gusting 6 5.6
2014-Apr-17 04:11 337 5 gusting 10 6.1
2014-Apr-17 03:56 326 3 gusting 7 6.1
2014-Apr-17 03:41 304 6 gusting 10 6.1
2014-Apr-17 03:11 314 3 gusting 5 6.1
2014-Apr-17 02:56 339 3 gusting 8 6.7
2014-Apr-17 02:41 309 2 gusting 6 6.7
2014-Apr-17 02:26 352 4 gusting 7 6.7
2014-Apr-17 02:11 342 4 gusting 7 6.7
2014-Apr-17 01:56 312 5 gusting 9 6.7
2014-Apr-17 01:41 307 6 gusting 10 6.7
2014-Apr-17 01:26 319 2 gusting 6 6.7
2014-Apr-17 01:11 312 2 gusting 4 5.0
2014-Apr-17 00:56 323 2 gusting 5 5.6
2014-Apr-17 00:41 328 1 gusting 5 5.6
2014-Apr-17 00:26 072 3 gusting 6 5.0
2014-Apr-17 00:11 246 0 gusting 7 4.4
2014-Apr-16 23:56 271 0 gusting 4 3.3
2014-Apr-16 23:41 271 0 gusting 4 2.8
2014-Apr-16 23:26 284 1 gusting 3 2.8
2014-Apr-16 23:11 342 2.2
2014-Apr-16 22:56 285 2 gusting 3 2.2
2014-Apr-16 22:41 283 1 gusting 2 2.2
2014-Apr-16 22:26 283 2 gusting 3 2.8
2014-Apr-16 22:11 283 1 gusting 2 2.8
2014-Apr-16 21:56 285 2 gusting 4 2.8
2014-Apr-16 21:41 280 2 gusting 5 2.8
2014-Apr-16 21:26 281 1 gusting 4 2.8
2014-Apr-16 21:11 260 0 gusting 2 3.3
2014-Apr-16 20:55 285 2 gusting 4 3.9
2014-Apr-16 20:41 297 2 gusting 4 4.4
2014-Apr-16 20:25 301 2 gusting 4 3.9
2014-Apr-16 20:10 121 4.4